Regional Weather Roundup
Issued by NWS State College, PA

Home | Current Version | Previous Version | Graphics & Text | Print | Product List | Glossary On
Versions: 1 2 3 4 5 6 7 8 9 10 11 12 13 14 15 16 17 18 19 20 21 22 23 24 25 26 27 28 29 30 31 32 33 34 35 36 37 38 39 40 41 42 43 44 45 46 47 48 49 50
000
ASUS41 KCTP 210210
RWRCTP

REGIONAL WEATHER ROUNDUP
NATIONAL WEATHER SERVICE STATE COLLEGE PA
900 PM EST SAT DEC 20 2014

Note: "fair" indicates few or no clouds below 12,000 feet with no
significant weather and/or obstructions to visibility.

* = STATION THAT DOES NOT REPORT PRECIPITATION /E.G. RAIN...SNOW...ETC/
    THUNDER OR FOG.

PAZ002>004-007>009-013>016-020>023-029>032-210300-
WESTERN PENNSYLVANIA

CITY           SKY/WX    TMP DP  RH WIND       PRES   REMARKS
ERIE           CLOUDY    30  21  69 S6        30.28S
MEADVILLE      CLOUDY    28  21  75 CALM      30.24R
FRANKLIN*      CLOUDY    27  18  69 CALM      30.25R
NEW CASTLE       N/A     29  24  81 CALM      30.28R
BEAVER COUNTY  CLOUDY    28  21  74 CALM      30.26R
BUTLER*        PTCLDY    25  19  80 CALM      30.27R
PITTSBURGH INT CLOUDY    28  20  71 CALM      30.25F
PITTSBURGH     CLOUDY    28  18  66 N3        30.24S
INDIANA*       CLOUDY    28  23  80 CALM      30.28S
LATROBE        MOCLDY    27  23  86 CALM      30.27S
WASHINGTON CO* NOT AVBL
$$

PAZ004>006-010>012-017>019-024>028-033>037-041-042-045-046-049>053-210300-
CENTRAL PENNSYLVANIA

CITY           SKY/WX    TMP DP  RH WIND       PRES   REMARKS
BRADFORD       CLOUDY    23  18  81 CALM      30.19R
DUBOIS         CLOUDY    26  19  74 CALM      30.20S
CLEARFIELD     CLOUDY    27  19  72 CALM      30.23S
JOHNSTOWN      CLOUDY    23  18  81 N3        30.17S
ALTOONA        CLOUDY    26  21  81 E5        30.23R
STATE COLLEGE  CLOUDY    28  21  74 CALM      30.25R
WILLIAMSPORT   CLOUDY    32  20  61 CALM      30.25F
SELINSGROVE    CLOUDY    32  23  69 CALM      30.27S
FT INDIANTOWN  PTCLDY    29  20  68 CALM      30.28R
CAPITAL CITY   CLEAR     26  20  77 SW3       30.29R
HARRISBURG     PTCLDY    26  20  77 CALM      30.28S
YORK           MOCLDY    24  21  88 CALM      30.27S
$$

PAZ038>040-043-044-047-048-054-055-060>062-067>071-210300-
EASTERN PENNSYLVANIA

CITY           SKY/WX    TMP DP  RH WIND       PRES   REMARKS
SCRANTON       CLOUDY    30  20  66 N3        30.24F
MOUNT POCONO   CLOUDY    25  18  74 N5        30.19R
ALLENTOWN      CLOUDY    31  22  69 NE5       30.28S
QUAKERTOWN*    CLOUDY    32  25  74 CALM      30.28S
READING        CLOUDY    32  20  61 CALM      30.27F
LANCASTER      CLEAR     28  21  75 CALM      30.27F
COATESVILLE    PTCLDY    30  23  74 CALM      30.26F
POTTSTOWN      CLOUDY    32  21  64 CALM      30.29F
BLUE BELL      CLOUDY    34  25  69 CALM      30.28S
DOYLESTOWN     CLOUDY    30  23  75 CALM      30.28R
WILLOW GROVE   NOT AVBL
NORTH PHILA    CLOUDY    34  21  59 CALM      30.32R
PHILADELPHIA   CLOUDY    35  21  56 NW6       30.31S
$$


USA.gov is the U.S. government's official web portal to all federal, state and local government web resources and services.